[[{"header":{"parameterUnit":"m.s-1","parameterCategory":1,"la1":30.2991,"la2":30.254,"lo1":-89.0895,"lo2":-89.0444,"dy":0.0017,"dx":0.0017,"nx":28,"ny":28,"refTime":"2025-04-04T21:00:00:Z","depth":0,"parameterNumber":2,"parameterNumberName":"U-component_of_WINDS"},"data":[0,0,0,0,0,0,0,0,0,0,0,0,0,0,0,0,0,0,0,0,0,0,0,0,0,0,0,0,0,0,0,0,0,0,0,0,0,0,0,0,0,0,0,0,0,0,0,0,0,0,0,0,0,0,0,0,0,0,-5.3869,-5.387,0,-5.4001,-5.4002,-5.4004,-5.4025,-5.4024,-5.4023,-5.4022,-5.4153,-5.4158,-5.4162,0,0,0,0,0,0,0,0,0,0,0,0,0,-5.3634,-5.3638,-5.3869,-5.3871,-5.3872,-5.4,-5.4002,-5.4004,-5.4026,-5.4024,-5.4023,-5.4022,-5.4152,-5.4157,-5.4163,0,0,0,0,0,0,0,0,0,0,0,0,0,-5.3747,-5.3639,-5.3869,-5.3899,-5.3903,-5.4,-5.4002,-5.4005,-5.4026,-5.4024,-5.4023,-5.4021,-5.415,-5.4157,-5.4163,-5.4239,0,0,-5.4184,-5.4187,0,0,0,0,0,0,0,0,-5.3741,-5.3756,-5.3892,-5.3897,-5.3901,-5.3995,-5.3967,-5.4083,-5.4026,-5.3979,-5.4022,-5.402,-5.4102,-5.4112,-5.4141,-5.4245,-5.4251,-5.4185,-5.4189,-5.4192,-5.4194,0,0,0,0,0,0,0,-5.3733,-5.375,-5.3921,-5.3894,-5.39,-5.3905,-5.3919,-5.3989,-5.4048,-5.3983,-5.3985,-5.4,-5.4104,-5.4134,-5.4144,-5.4253,-5.4185,-5.4191,-5.4195,-5.4197,-5.4426,-5.4428,0,0,0,0,0,0,-5.372,-5.3744,-5.3917,-5.3925,-5.3815,-5.391,-5.3926,-5.3967,-5.4047,-5.4058,-5.4002,-5.4001,-5.4123,-5.4136,-5.4149,-5.4242,-5.4192,-5.4198,-5.4202,-5.4424,-5.4427,-5.4429,0,0,0,0,0,0,-5.3715,-5.3735,-5.3911,-5.3835,-5.3858,-5.3916,-5.3961,-5.397,-5.4,-5.4062,-5.4072,-5.4022,-5.4122,-5.4139,-5.4217,-5.4247,-5.4201,-5.4207,-5.4422,-5.4425,-5.4428,-5.4429,0,0,0,0,0,0,-5.3708,-5.3733,-5.3763,-5.3836,-5.3862,-5.3978,-5.3963,-5.3974,-5.4012,-5.4013,-5.4083,-5.4093,-5.4122,-5.4206,-5.4223,-5.4255,-5.4213,-5.4419,-5.4423,-5.4427,-5.4426,-5.4432,-5.4436,0,0,0,0,0,-5.37,-5.3758,-5.3765,-5.3785,-5.39,-5.398,-5.3994,-5.4028,-5.4015,-5.4045,-5.4084,-5.4091,-5.4241,-5.4214,-5.4234,-5.4268,-5.4417,-5.4422,-5.4426,-5.4424,-5.4431,-5.4436,0,0,0,0,0,0,-5.3685,-5.3767,-5.3776,-5.3859,-5.3913,-5.3983,-5.4022,-5.4033,-5.409,-5.4088,-5.4126,-5.4142,-5.4217,-5.4251,-5.4219,-5.4345,-5.4328,-5.4337,-5.432,-5.4327,-5.4331,-5.432,-5.4218,0,0,0,0,0,-5.3693,-5.3751,-5.3819,-5.3886,-5.3912,-5.3963,-5.3998,-5.402,-5.4076,-5.4098,-5.4143,-5.4196,-5.4256,-5.4293,-5.4351,-5.4433,-5.4447,-5.4466,-5.4471,-5.4474,-5.448,-5.4525,-5.4533,-5.4443,-5.4443,-5.4443,0,0,-5.3706,-5.3759,-5.3793,-5.3884,-5.3928,-5.3987,-5.3981,-5.4043,-5.4087,-5.4107,-5.4183,-5.4218,-5.428,-5.436,-5.4397,-5.439,-5.4509,-5.448,-5.4482,-5.4486,-5.453,-5.4539,-5.4546,-5.4446,-5.4446,-5.4445,0,0,-5.3761,-5.3808,-5.3868,-5.3912,-5.3979,-5.4013,-5.4027,-5.4097,-5.4121,-5.4199,-5.4215,-5.4267,-5.4369,-5.4412,-5.4447,-5.4521,-5.4529,-5.4539,-5.4563,-5.4606,-5.4613,-5.4619,-5.4644,-5.4652,-5.4546,-5.4546,-5.4546,0,-5.3769,-5.3859,-5.3897,-5.3959,-5.3998,-5.4022,-5.4082,-5.4124,-5.4205,-5.4231,-5.4223,-5.4352,-5.4395,-5.4484,-5.4503,-5.4531,-5.4548,-5.453,-5.4609,-5.4616,-5.4623,-5.4646,-5.4656,-5.4546,-5.4546,-5.4546,-5.4546,0,-5.3866,-5.3928,-5.3969,-5.4048,-5.4093,-5.4154,-5.42,-5.424,-5.4259,-5.4293,-5.4371,-5.4425,-5.4493,-5.4517,-5.4535,-5.4609,-5.4603,-5.4602,-5.4585,-5.4631,-5.4654,-5.4663,-5.4547,-5.4547,-5.4547,-5.4547,0,0,-5.3912,-5.4014,-5.4028,-5.4064,-5.4141,-5.4189,-5.4251,-5.432,-5.4353,-5.441,-5.4462,-5.4548,-5.4548,-5.4588,-5.4612,-5.465,-5.4703,-5.4644,-5.4646,-5.4651,-5.4787,-5.4785,-5.4795,-5.4711,-5.4712,-5.4714,-5.4781,0,-5.3974,-5.4086,-5.4123,-5.4215,-5.4273,-5.4297,-5.4351,-5.4404,-5.4438,-5.4491,-5.4529,-5.4588,-5.4585,-5.4609,-5.4648,-5.4688,-5.473,-5.4685,-5.4757,-5.4759,-5.4738,-5.4807,-5.4805,-5.4866,-5.479,-5.4792,-5.4793,0,-5.406,-5.4119,-5.4218,-5.4288,-5.4314,-5.4362,-5.4428,-5.4479,-5.4539,-5.4561,-5.4607,-5.4628,-5.4693,-5.4676,-5.4765,-5.4733,-5.4765,-5.479,-5.4793,-5.4798,-5.4776,-5.4812,-5.4886,-5.4894,-5.4808,-5.4806,-5.4805,0,-5.4081,-5.4186,-5.4259,-5.4289,-5.4373,-5.4406,-5.4443,-5.4501,-5.4541,-5.4599,-5.4624,-5.4689,-5.4724,-5.4773,-5.4811,-5.4794,-5.4896,-5.4882,-5.4915,-5.4914,-5.4932,-5.493,-5.501,-5.4958,-5.4958,-5.4958,-5.4958,0,-5.4145,-5.4204,-5.4269,-5.4313,-5.438,-5.4422,-5.4487,-5.4524,-5.4577,-5.4628,-5.4654,-5.4701,-5.475,-5.4803,-5.4834,-5.4902,-5.4918,-5.4937,-5.4943,-5.4933,-5.493,-5.4952,-5.4948,-5.496,-5.496,-5.4959,-5.4959,0,-5.4178,-5.4224,-5.4305,-5.4379,-5.4399,-5.4444,-5.4507,-5.455,-5.4587,-5.4652,-5.4669,-5.4726,-5.4791,-5.4834,-5.4917,-5.4937,-5.5011,-5.5018,-5.4991,-5.4993,-5.5023,-5.5019,-5.5117,-5.5132,-5.5073,-5.5073,-5.5074,0,-5.4214,-5.426,-5.4339,-5.4376,-5.4413,-5.4472,-5.4513,-5.4557,-5.4598,-5.4671,-5.4705,-5.4772,-5.4827,-5.493,-5.4977,-5.5041,-5.5048,-5.5079,-5.5057,-5.5045,-5.5046,-5.5041,-5.5046,-5.508,-5.5081,-5.5081,-5.5082,0,-5.4272,-5.4293,-5.4352,-5.4418,-5.4466,-5.4521,-5.4575,-5.4604,-5.4657,-5.4702,-5.4769,-5.4812,-5.4898,-5.4963,-5.5031,-5.5068,-5.5083,-5.5089,-5.5099,-5.5087,-5.5068,-5.5077,-5.4997,-5.5085,-5.5085,-5.5084,-5.5084,-5.5084,-5.4307,-5.4348,-5.4411,-5.4475,-5.4521,-5.4572,-5.4616,-5.4659,-5.4716,-5.4789,-5.4812,-5.4882,-5.4941,-5.5035,-5.5073,-5.5127,-5.5124,-5.514,-5.5143,-5.5146,-5.5145,-5.5062,-5.514,-5.514,-5.514,-5.514,-5.514,0,-5.4364,-5.4406,-5.4465,-5.4541,-5.4591,-5.4604,-5.4665,-5.4706,-5.4767,-5.4822,-5.4877,-5.4954,-5.5018,-5.5072,-5.5138,-5.5172,-5.518,-5.5187,-5.5184,-5.5191,-5.5145,-5.5128,-5.5179,-5.5179,-5.5179,-5.5179,-5.5179,-5.5179,-5.44,-5.4471,-5.45,-5.4594,-5.4636,-5.4705,-5.4739,-5.4785,-5.4829,-5.4915,-5.4968,-5.5004,-5.5059,-5.5129,-5.5188,-5.5203,-5.5225,-5.523,-5.5245,-5.5199,-5.5195,-5.519,-5.5175,-5.5235,-5.5235,-5.5287,-5.5288,-5.5288]},{"header":{"parameterUnit":"m.s-1","parameterCategory":1,"la1":30.2991,"la2":30.254,"lo1":-89.0895,"lo2":-89.0444,"dy":0.0017,"dx":0.0017,"nx":28,"ny":28,"refTime":"2025-04-04T21:00:00:Z","depth":0,"parameterNumber":3,"parameterNumberName":"V-component_of_WINDS"},"data":[0,0,0,0,0,0,0,0,0,0,0,0,0,0,0,0,0,0,0,0,0,0,0,0,0,0,0,0,0,0,0,0,0,0,0,0,0,0,0,0,0,0,0,0,0,0,0,0,0,0,0,0,0,0,0,0,0,0,4.8891,4.8891,0,4.8945,4.8946,4.8946,4.8962,4.8961,4.8961,4.8961,4.9013,4.9015,4.9016,0,0,0,0,0,0,0,0,0,0,0,0,0,4.8799,4.8801,4.8891,4.8891,4.8892,4.8945,4.8946,4.8946,4.8962,4.8961,4.8961,4.8961,4.9013,4.9015,4.9017,0,0,0,0,0,0,0,0,0,0,0,0,0,4.8845,4.8801,4.8891,4.8906,4.8908,4.8945,4.8946,4.8947,4.8962,4.8961,4.8961,4.8961,4.9012,4.9014,4.9017,4.9041,0,0,4.9025,4.9026,0,0,0,0,0,0,0,0,4.8842,4.8848,4.8903,4.8905,4.8907,4.8946,4.8933,4.8978,4.8962,4.8941,4.8961,4.896,4.8991,4.8995,4.9006,4.9043,4.9046,4.9025,4.9026,4.9027,4.9028,0,0,0,0,0,0,0,4.8839,4.8846,4.8912,4.8904,4.8907,4.891,4.8916,4.8941,4.8968,4.8943,4.8944,4.8951,4.8992,4.9004,4.9008,4.9046,4.9025,4.9027,4.9028,4.9029,4.9109,4.911,0,0,0,0,0,0,4.8833,4.8843,4.891,4.8914,4.8873,4.8912,4.8919,4.8934,4.8968,4.8972,4.8951,4.8951,4.9,4.9005,4.901,4.9042,4.9027,4.903,4.9031,4.9109,4.9109,4.911,0,0,0,0,0,0,4.8831,4.8839,4.8908,4.8879,4.8888,4.8914,4.8931,4.8935,4.8947,4.8974,4.8978,4.8958,4.9,4.9006,4.9034,4.9044,4.9031,4.9033,4.9108,4.9109,4.911,4.9106,0,0,0,0,0,0,4.8829,4.8838,4.8848,4.8879,4.8889,4.8932,4.8932,4.8937,4.8952,4.8953,4.8982,4.8986,4.9,4.903,4.9036,4.9047,4.9035,4.9107,4.9108,4.9109,4.9105,4.9106,4.9107,0,0,0,0,0,4.8825,4.8843,4.8848,4.8856,4.8902,4.8932,4.8938,4.8955,4.8953,4.8963,4.898,4.8985,4.9042,4.9033,4.904,4.9052,4.9106,4.9108,4.9109,4.9104,4.9106,4.9107,0,0,0,0,0,0,4.881,4.8847,4.8853,4.8882,4.8904,4.8935,4.8948,4.8955,4.8978,4.8977,4.8996,4.9002,4.903,4.9043,4.9033,4.9078,4.9074,4.9077,4.9068,4.907,4.9071,4.9067,4.9037,0,0,0,0,0,4.8811,4.8833,4.8864,4.8886,4.8897,4.8921,4.8934,4.8946,4.8969,4.8978,4.8997,4.9019,4.9042,4.9057,4.9079,4.9107,4.9115,4.9119,4.912,4.9121,4.9123,4.9142,4.9144,4.9115,4.9115,4.9115,0,0,4.8811,4.8834,4.8846,4.8884,4.8902,4.8925,4.8928,4.8951,4.8969,4.8981,4.901,4.9025,4.905,4.9079,4.9093,4.9092,4.9133,4.9123,4.9123,4.9125,4.9143,4.9146,4.9149,4.9116,4.9115,4.9115,0,0,4.8823,4.8842,4.8864,4.8884,4.8913,4.8929,4.8934,4.8965,4.8976,4.9005,4.9016,4.9036,4.9075,4.9094,4.9108,4.9132,4.9138,4.9138,4.9145,4.9162,4.9165,4.9167,4.9177,4.918,4.914,4.914,4.914,0,4.8819,4.8855,4.8874,4.8898,4.8915,4.893,4.8952,4.897,4.9004,4.9015,4.9014,4.9065,4.9083,4.9117,4.9124,4.9134,4.9142,4.9135,4.9163,4.9165,4.9168,4.9177,4.9181,4.914,4.914,4.914,4.914,0,4.885,4.8875,4.8889,4.8924,4.8942,4.8965,4.8988,4.9005,4.9015,4.9031,4.9062,4.9085,4.9113,4.9122,4.9131,4.9159,4.9158,4.9159,4.9156,4.917,4.9179,4.9183,4.914,4.914,4.914,4.914,0,0,4.8852,4.8901,4.8905,4.8923,4.8957,4.8977,4.9001,4.9031,4.9045,4.9069,4.9091,4.9125,4.9128,4.9144,4.9156,4.9171,4.9191,4.9171,4.9172,4.9175,4.9225,4.9224,4.9228,4.9195,4.9196,4.9197,4.9223,0,4.887,4.8915,4.8935,4.8971,4.8996,4.9011,4.9033,4.9057,4.9073,4.9096,4.9114,4.9138,4.9139,4.915,4.9166,4.9185,4.9201,4.9183,4.9216,4.9217,4.921,4.9232,4.9231,4.9255,4.9227,4.9227,4.9228,0,4.8896,4.8923,4.8962,4.8997,4.9008,4.9027,4.9057,4.9079,4.9106,4.9118,4.9138,4.915,4.9177,4.9172,4.921,4.9198,4.9212,4.9224,4.9225,4.9229,4.9223,4.9238,4.9262,4.9266,4.9233,4.9233,4.9233,0,4.8895,4.8941,4.8971,4.8985,4.9026,4.904,4.9057,4.9085,4.9102,4.9129,4.9141,4.9169,4.9185,4.9207,4.9226,4.9221,4.9263,4.9259,4.9274,4.9273,4.9282,4.9281,4.931,4.929,4.929,4.929,4.929,0,4.8913,4.8937,4.8972,4.8991,4.9019,4.9041,4.9068,4.9086,4.9112,4.9134,4.9149,4.917,4.9194,4.9219,4.9234,4.9264,4.9271,4.9281,4.9285,4.928,4.9279,4.929,4.9289,4.9291,4.9291,4.929,4.929,0,4.8917,4.8941,4.8976,4.9013,4.9023,4.9042,4.9073,4.9092,4.9111,4.914,4.9148,4.9176,4.9206,4.9228,4.9265,4.9276,4.9309,4.9312,4.93,4.9302,4.9316,4.9314,4.9353,4.936,4.9335,4.9335,4.9335,0,4.8926,4.8946,4.8986,4.9003,4.9021,4.9048,4.9067,4.9091,4.911,4.9146,4.9161,4.9192,4.9218,4.9265,4.9289,4.9318,4.9323,4.9335,4.9327,4.9323,4.9325,4.9324,4.9327,4.9335,4.9336,4.9336,4.9336,0,4.8942,4.8954,4.8981,4.9014,4.9037,4.9063,4.909,4.9103,4.9132,4.9152,4.9184,4.9205,4.9245,4.9276,4.9309,4.9327,4.9336,4.9338,4.9343,4.9339,4.9331,4.9337,4.9304,4.9337,4.9337,4.9337,4.9337,4.9337,4.8949,4.8968,4.9001,4.9032,4.9055,4.908,4.9101,4.9124,4.9151,4.9187,4.9199,4.9232,4.9262,4.9307,4.9326,4.9352,4.9352,4.9359,4.9361,4.9362,4.9363,4.9327,4.9358,4.9358,4.9358,4.9358,4.9358,0,4.8967,4.8989,4.9018,4.9056,4.9081,4.909,4.9121,4.914,4.917,4.9198,4.9225,4.9262,4.9293,4.9321,4.9354,4.937,4.9375,4.9377,4.9377,4.9381,4.936,4.9353,4.9373,4.9373,4.9373,4.9373,4.9373,4.9373,4.8978,4.9012,4.9028,4.9074,4.9096,4.913,4.9147,4.9171,4.9194,4.9236,4.9263,4.9282,4.931,4.9345,4.9375,4.9382,4.9394,4.9395,4.9404,4.9384,4.9382,4.938,4.9374,4.9397,4.9397,4.9423,4.9423,4.9423]}]]